This demonstration page uses our WeatherBlox Daily Observations layout. Learn more.

Hourly Observations for January 10, 2020

Temp ( °F °C ) Dew Point ( °F °C ) Humidity (%) Winds ( mph kmh ) Pressure ( in mb ) Visibility ( mi km ) Precip ( " mm )
12:15 am 00:15 Clear 32 0 27 -3 80 80 S 3 6 30.64 1038 10 16.0934 0 0
12:35 am 00:35 Clear 32 0 27 -3 80 80 S 6 9 30.63 1037 10 16.0934 0 0
12:55 am 00:55 Clear 32 0 27 -3 80 80 S 8 13 30.63 1037 10 16.0934 0 0
1:15 am 01:15 Clear 32 0 27 -3 80 80 S 9 15 30.62 1037 10 16.0934 0 0
1:35 am 01:35 Clear 32 0 28 -2 87 87 S 9 15 30.61 1037 10 16.0934 0 0
1:55 am 01:55 Clear 32 0 28 -2 87 87 S 9 15 30.61 1037 10 16.0934 0 0
2:15 am 02:15 Clear 32 0 28 -2 87 87 S 6 9 30.61 1037 10 16.0934 0 0
2:35 am 02:35 Clear 32 0 28 -2 87 87 S 7 11 30.6 1036 10 16.0934 0 0
2:55 am 02:55 Clear 32 0 30 -1 93 93 S 12 19 30.6 1036 10 16.0934 0 0
3:15 am 03:15 Clear 34 1 30 -1 87 87 S 13 20 30.59 1036 10 16.0934 0 0
3:35 am 03:35 Clear 34 1 30 -1 87 87 S 13 20 30.58 1036 10 16.0934 0 0
3:55 am 03:55 Clear 34 1 30 -1 87 87 S 12 19 30.59 1036 10 16.0934 0 0
4:15 am 04:15 Mostly Cloudy 34 1 30 -1 87 87 S 7 11 30.59 1036 10 16.0934 0 0
4:35 am 04:35 Cloudy 34 1 30 -1 87 87 S 6 9 30.6 1036 10 16.0934 0 0
4:55 am 04:55 Cloudy 34 1 30 -1 87 87 S 6 9 30.59 1036 10 16.0934 0 0
5:15 am 05:15 Cloudy 34 1 30 -1 87 87 S 6 9 30.6 1036 10 16.0934 0 0
5:35 am 05:35 Cloudy 34 1 30 -1 87 87 S 8 13 30.6 1036 10 16.0934 0 0
5:55 am 05:55 Cloudy 34 1 30 -1 87 87 S 9 15 30.6 1036 10 16.0934 0 0
6:15 am 06:15 Partly Cloudy 34 1 30 -1 87 87 S 7 11 30.59 1036 10 16.0934 0 0
6:35 am 06:35 Mostly Cloudy 34 1 30 -1 87 87 S 8 13 30.6 1036 10 16.0934 0 0
6:55 am 06:55 Partly Cloudy 36 2 32 0 87 87 S 9 15 30.6 1036 10 16.0934 0 0
7:15 am 07:15 Partly Cloudy 34 1 32 0 93 93 SSW 6 9 30.59 1036 10 16.0934 0 0
7:35 am 07:35 Sunny 34 1 32 0 93 93 SSW 5 7 30.59 1036 10 16.0934 0 0
7:55 am 07:55 Sunny 34 1 32 0 93 93 S 6 9 30.58 1036 10 16.0934 0 0
8:15 am 08:15 Sunny 36 2 32 0 87 87 SSW 6 9 30.58 1036 10 16.0934 0 0
8:35 am 08:35 Sunny 36 2 32 0 87 87 SSW 5 7 30.59 1036 10 16.0934 0 0
8:55 am 08:55 Sunny 36 2 32 0 87 87 Calm 30.6 1036 10 16.0934 0 0
9:15 am 09:15 Sunny 36 2 32 0 87 87 S 3 6 30.59 1036 10 16.0934 0 0
9:35 am 09:35 Sunny 36 2 32 0 87 87 S 5 7 30.59 1036 10 16.0934 0 0
9:55 am 09:55 Partly Cloudy 37 3 32 0 81 81 SSW 5 7 30.59 1036 10 16.0934 0 0
10:15 am 10:15 Partly Cloudy 37 3 32 0 81 81 SSW 5 7 30.58 1035 10 16.0934 0 0
10:35 am 10:35 Partly Cloudy 39 4 32 0 75 75 SW 3 6 30.57 1035 10 16.0934 0 0
10:55 am 10:55 Sunny 41 5 32 0 70 70 SW 3 6 30.56 1035 10 16.0934 0 0
11:15 am 11:15 Sunny 41 5 34 1 76 76 Calm 30.54 1034 10 16.0934 0 0
11:35 am 11:35 Sunny 43 6 34 1 71 71 SW 6 9 30.53 1034 10 16.0934 0 0
11:55 am 11:55 Sunny 45 7 36 2 71 71 SSW 5 7 30.51 1033 10 16.0934 0 0
12:15 pm 12:15 Sunny 46 8 37 3 71 71 S 9 15 30.5 1033 10 16.0934 0 0
12:35 pm 12:35 Partly Cloudy 46 8 37 3 71 71 SSW 9 15 30.48 1032 10 16.0934 0 0
12:55 pm 12:55 Partly Cloudy 46 8 37 3 71 71 S 10 17 30.47 1032 10 16.0934 0 0
1:15 pm 13:15 Sunny 46 8 39 4 76 76 SSW 10 17 30.47 1032 10 16.0934 0 0
1:35 pm 13:35 Sunny 48 9 39 4 71 71 SSW 12 19 30.46 1031 10 16.0934 0 0
1:55 pm 13:55 Sunny 48 9 41 5 76 76 SSW 13 20 30.46 1031 10 16.0934 0 0
2:15 pm 14:15 Sunny 50 10 41 5 71 71 SSW 13 20 30.45 1031 10 16.0934 0 0
2:35 pm 14:35 Sunny 50 10 41 5 71 71 SSW 15 24 30.44 1031 10 16.0934 0 0
2:55 pm 14:55 Sunny 50 10 43 6 76 76 SSW 12 19 30.44 1031 10 16.0934 0 0
3:15 pm 15:15 Sunny 50 10 43 6 76 76 SSW 12 19 30.44 1031 10 16.0934 0 0
3:35 pm 15:35 Partly Cloudy 52 11 43 6 72 72 SSW 12 19 30.43 1031 10 16.0934 0 0
3:55 pm 15:55 Partly Cloudy 52 11 43 6 72 72 S 8 13 30.43 1031 10 16.0934 0 0
4:15 pm 16:15 Mostly Cloudy 52 11 45 7 77 77 S 8 13 30.44 1031 10 16.0934 0 0
4:35 pm 16:35 Cloudy 52 11 45 7 77 77 S 9 15 30.43 1031 10 16.0934 0 0
4:55 pm 16:55 Cloudy 52 11 45 7 77 77 S 10 17 30.43 1031 10 16.0934 0 0
5:15 pm 17:15 Cloudy 52 11 45 7 77 77 S 10 17 30.44 1031 10 16.0934 0 0
5:35 pm 17:35 Partly Cloudy 52 11 45 7 77 77 S 13 20 30.43 1031 10 16.0934 0 0
5:55 pm 17:55 Clear 52 11 45 7 77 77 S 12 19 30.43 1031 10 16.0934 0 0
6:15 pm 18:15 Partly Cloudy 52 11 46 8 82 82 S 8 13 30.43 1031 10 16.0934 0 0
6:35 pm 18:35 Cloudy 52 11 46 8 82 82 S 8 13 30.44 1031 10 16.0934 0 0
6:55 pm 18:55 Cloudy 52 11 46 8 82 82 S 8 13 30.44 1031 10 16.0934 0 0
7:15 pm 19:15 Cloudy 54 12 46 8 77 77 S 8 13 30.43 1031 10 16.0934 0 0
7:35 pm 19:35 Mostly Cloudy 54 12 46 8 77 77 S 7 11 30.43 1031 10 16.0934 0 0
7:55 pm 19:55 Mostly Cloudy 54 12 46 8 77 77 SSW 13 20 30.42 1030 10 16.0934 0 0
8:15 pm 20:15 Partly Cloudy 54 12 48 9 82 82 SSW 9 15 30.42 1030 10 16.0934 0 0
8:35 pm 20:35 Partly Cloudy 54 12 48 9 82 82 S 10 17 30.42 1030 10 16.0934 0 0
8:55 pm 20:55 Partly Cloudy 54 12 48 9 82 82 S 12 19 30.41 1030 10 16.0934 0 0
9:15 pm 21:15 Clear 54 12 48 9 82 82 S 10 17 30.41 1030 10 16.0934 0 0
9:35 pm 21:35 Clear 52 11 48 9 88 88 S 9 15 30.41 1030 10 16.0934 0 0
9:55 pm 21:55 Clear 52 11 48 9 88 88 S 9 15 30.41 1030 10 16.0934 0 0
10:15 pm 22:15 Clear 52 11 48 9 88 88 S 10 17 30.41 1030 10 16.0934 0 0
10:35 pm 22:35 Partly Cloudy 52 11 48 9 88 88 S 7 11 30.4 1030 10 16.0934 0 0
10:55 pm 22:55 Mostly Cloudy 52 11 48 9 88 88 S 10 17 30.4 1030 10 16.0934 0 0
11:15 pm 23:15 Partly Cloudy 52 11 48 9 88 88 S 10 17 30.4 1030 10 16.0934 0 0
11:35 pm 23:35 Partly Cloudy 52 11 48 9 88 88 S 9 15 30.4 1030 10 16.0934 0 0
11:55 pm 23:55 Mostly Cloudy 52 11 48 9 88 88 S 7 11 30.4 1030 10 16.0934 0 0

Powered by AerisWeather